Saint Bonnet de Bellac- Haute Vienne - France
Donnes mto: samedi, 17/03/2012
Date Horaire Temp. E. Hum. E. P.atmo. Pluie Vent Direction Direction Ensoleilleme Solaire P. de rose Temp au vent Rafales
17/03/2012 00:00 8,4 C 84 % 1020,0 hPa 0,0 mm 0,0 km/h (0 Bft) O-SO 247 0 min 0 W/m 5,9 C 8,4 C 0,0 km/h (0 Bft)
17/03/2012 00:10 8,3 C 85 % 1020,2 hPa 0,0 mm 0,0 km/h (0 Bft) O-SO 247 0 min 0 W/m 5,9 C 8,3 C 0,0 km/h (0 Bft)
17/03/2012 00:20 8,2 C 87 % 1020,2 hPa 0,0 mm 1,8 km/h (1 Bft) SO 225 0 min 0 W/m 6,2 C 8,2 C 3,6 km/h (1 Bft)
17/03/2012 00:30 8,1 C 89 % 1020,2 hPa 0,0 mm 3,2 km/h (1 Bft) O-SO 247 0 min 0 W/m 6,4 C 8,1 C 6,5 km/h (2 Bft)
17/03/2012 00:40 8,0 C 89 % 1020,3 hPa 0,0 mm 0,4 km/h (0 Bft) O-SO 247 0 min 0 W/m 6,3 C 8,0 C 3,2 km/h (1 Bft)
17/03/2012 00:50 7,9 C 90 % 1020,2 hPa 0,0 mm 0,7 km/h (0 Bft) O-SO 247 0 min 0 W/m 6,4 C 7,9 C 0,7 km/h (0 Bft)
17/03/2012 01:00 7,8 C 91 % 1020,3 hPa 0,0 mm 6,8 km/h (2 Bft) O-SO 247 0 min 0 W/m 6,4 C 6,7 C 7,6 km/h (2 Bft)
17/03/2012 01:10 7,8 C 91 % 1020,4 hPa 0,0 mm 1,1 km/h (1 Bft) S-SO 202 0 min 0 W/m 6,4 C 7,8 C 4,0 km/h (1 Bft)
17/03/2012 01:20 7,8 C 91 % 1020,4 hPa 0,0 mm 1,8 km/h (1 Bft) SO 225 0 min 0 W/m 6,4 C 7,8 C 6,1 km/h (2 Bft)
17/03/2012 01:30 7,8 C 92 % 1020,4 hPa 0,0 mm 0,4 km/h (0 Bft) SO 225 0 min 0 W/m 6,6 C 7,8 C 0,4 km/h (0 Bft)
17/03/2012 01:40 7,8 C 92 % 1020,5 hPa 0,0 mm 3,2 km/h (1 Bft) S-SO 202 0 min 0 W/m 6,6 C 7,8 C 4,3 km/h (1 Bft)
17/03/2012 01:50 7,8 C 92 % 1020,5 hPa 0,0 mm 4,7 km/h (1 Bft) SO 225 0 min 0 W/m 6,6 C 7,4 C 6,5 km/h (2 Bft)
17/03/2012 02:02 7,8 C 92 % 1020,5 hPa 0,0 mm 1,1 km/h (1 Bft) O-SO 247 0 min 0 W/m 6,6 C 7,8 C 4,3 km/h (1 Bft)
17/03/2012 02:10 7,8 C 92 % 1020,5 hPa 0,0 mm 2,2 km/h (1 Bft) SO 225 0 min 0 W/m 6,6 C 7,8 C 5,4 km/h (2 Bft)
17/03/2012 02:20 7,8 C 92 % 1020,5 hPa 0,0 mm 2,9 km/h (1 Bft) S-SO 202 0 min 0 W/m 6,6 C 7,8 C 3,6 km/h (1 Bft)
17/03/2012 02:30 7,8 C 92 % 1020,5 hPa 0,0 mm 1,8 km/h (1 Bft) O-SO 247 0 min 0 W/m 6,6 C 7,8 C 4,3 km/h (1 Bft)
17/03/2012 02:40 7,8 C 92 % 1020,5 hPa 0,0 mm 2,2 km/h (1 Bft) S-SO 202 0 min 0 W/m 6,6 C 7,8 C 5,8 km/h (2 Bft)
17/03/2012 02:50 7,8 C 93 % 1020,5 hPa 0,0 mm 3,2 km/h (1 Bft) SO 225 0 min 0 W/m 6,7 C 7,8 C 7,9 km/h (2 Bft)
17/03/2012 03:00 7,7 C 93 % 1020,3 hPa 0,0 mm 2,5 km/h (1 Bft) SO 225 0 min 0 W/m 6,6 C 7,7 C 4,3 km/h (1 Bft)
17/03/2012 03:10 7,7 C 93 % 1020,3 hPa 0,0 mm 2,9 km/h (1 Bft) SO 225 0 min 0 W/m 6,6 C 7,7 C 6,5 km/h (2 Bft)
17/03/2012 03:20 7,6 C 93 % 1020,1 hPa 0,0 mm 1,1 km/h (1 Bft) S-SO 202 0 min 0 W/m 6,5 C 7,6 C 4,0 km/h (1 Bft)
17/03/2012 03:30 7,6 C 93 % 1020,0 hPa 0,0 mm 2,2 km/h (1 Bft) SO 225 0 min 0 W/m 6,5 C 7,6 C 4,0 km/h (1 Bft)
17/03/2012 03:40 7,6 C 93 % 1020,0 hPa 0,0 mm 0,7 km/h (0 Bft) SO 225 0 min 0 W/m 6,5 C 7,6 C 4,0 km/h (1 Bft)
17/03/2012 03:50 7,5 C 93 % 1019,9 hPa 0,0 mm 1,4 km/h (1 Bft) SO 225 0 min 0 W/m 6,4 C 7,5 C 4,0 km/h (1 Bft)
17/03/2012 04:00 7,6 C 93 % 1019,9 hPa 0,0 mm 4,3 km/h (1 Bft) SO 225 0 min 0 W/m 6,5 C 7,6 C 5,8 km/h (2 Bft)
17/03/2012 04:10 7,6 C 94 % 1019,8 hPa 0,0 mm 2,9 km/h (1 Bft) SO 225 0 min 0 W/m 6,7 C 7,6 C 4,3 km/h (1 Bft)
17/03/2012 04:20 7,6 C 94 % 1019,8 hPa 0,0 mm 5,4 km/h (2 Bft) SO 225 0 min 0 W/m 6,7 C 6,9 C 7,9 km/h (2 Bft)
17/03/2012 04:30 7,6 C 94 % 1019,8 hPa 0,0 mm 2,5 km/h (1 Bft) SO 225 0 min 0 W/m 6,7 C 7,6 C 2,5 km/h (1 Bft)
17/03/2012 04:40 7,5 C 94 % 1019,8 hPa 0,0 mm 1,8 km/h (1 Bft) SO 225 0 min 0 W/m 6,6 C 7,5 C 4,3 km/h (1 Bft)
17/03/2012 04:50 7,5 C 94 % 1019,7 hPa 0,0 mm 2,5 km/h (1 Bft) SO 225 0 min 0 W/m 6,6 C 7,5 C 3,6 km/h (1 Bft)
17/03/2012 05:00 7,5 C 94 % 1019,7 hPa 0,0 mm 1,8 km/h (1 Bft) S 180 0 min 0 W/m 6,6 C 7,5 C 4,0 km/h (1 Bft)
17/03/2012 05:10 7,5 C 94 % 1019,6 hPa 0,0 mm 5,8 km/h (2 Bft) S-SE 157 0 min 0 W/m 6,6 C 6,7 C 8,3 km/h (2 Bft)
17/03/2012 05:20 7,5 C 94 % 1019,5 hPa 0,0 mm 2,9 km/h (1 Bft) S-SO 202 0 min 0 W/m 6,6 C 7,5 C 4,3 km/h (1 Bft)
17/03/2012 05:30 7,5 C 93 % 1019,5 hPa 0,0 mm 3,6 km/h (1 Bft) S-SO 202 0 min 0 W/m 6,4 C 7,5 C 7,9 km/h (2 Bft)
17/03/2012 05:40 7,6 C 93 % 1019,4 hPa 0,0 mm 0,4 km/h (0 Bft) S 180 0 min 0 W/m 6,5 C 7,6 C 0,4 km/h (0 Bft)
17/03/2012 05:50 7,6 C 93 % 1019,3 hPa 0,0 mm 1,1 km/h (1 Bft) S 180 0 min 0 W/m 6,5 C 7,6 C 4,3 km/h (1 Bft)
17/03/2012 06:00 7,7 C 93 % 1019,3 hPa 0,0 mm 0,7 km/h (0 Bft) S 180 0 min 0 W/m 6,6 C 7,7 C 0,7 km/h (0 Bft)
17/03/2012 06:10 7,8 C 93 % 1019,3 hPa 0,0 mm 2,9 km/h (1 Bft) S-SO 202 0 min 0 W/m 6,7 C 7,8 C 6,5 km/h (2 Bft)
17/03/2012 06:20 7,8 C 93 % 1019,4 hPa 0,0 mm 1,8 km/h (1 Bft) S-SO 202 0 min 0 W/m 6,7 C 7,8 C 4,0 km/h (1 Bft)
17/03/2012 06:30 7,9 C 93 % 1019,4 hPa 0,0 mm 4,0 km/h (1 Bft) S 180 0 min 0 W/m 6,8 C 7,9 C 6,8 km/h (2 Bft)
17/03/2012 06:40 7,9 C 93 % 1019,3 hPa 0,0 mm 1,8 km/h (1 Bft) S 180 0 min 0 W/m 6,8 C 7,9 C 4,3 km/h (1 Bft)
17/03/2012 06:50 7,9 C 93 % 1019,3 hPa 0,0 mm 5,4 km/h (2 Bft) SO 225 0 min 0 W/m 6,8 C 7,2 C 9,4 km/h (2 Bft)
17/03/2012 07:00 7,9 C 93 % 1019,5 hPa 0,0 mm 3,2 km/h (1 Bft) S-SO 202 0 min 0 W/m 6,8 C 7,9 C 6,8 km/h (2 Bft)
17/03/2012 07:10 8,0 C 93 % 1019,5 hPa 0,0 mm 3,2 km/h (1 Bft) S-SE 157 0 min 0 W/m 6,9 C 8,0 C 4,3 km/h (1 Bft)
17/03/2012 07:20 8,1 C 93 % 1019,5 hPa 0,0 mm 4,7 km/h (1 Bft) S-SO 202 2 min 0 W/m 7,0 C 7,7 C 8,3 km/h (2 Bft)
17/03/2012 07:30 8,2 C 93 % 1019,5 hPa 0,0 mm 7,9 km/h (2 Bft) S-SO 202 2 min 0 W/m 7,1 C 6,9 C 11,5 km/h (2 Bft)
17/03/2012 07:40 8,2 C 93 % 1019,5 hPa 0,0 mm 4,7 km/h (1 Bft) S-SO 202 2 min 0 W/m 7,1 C 7,8 C 8,3 km/h (2 Bft)
17/03/2012 07:50 8,3 C 93 % 1019,4 hPa 0,0 mm 8,3 km/h (2 Bft) S-SO 202 2 min 0 W/m 7,2 C 6,9 C 11,2 km/h (2 Bft)
17/03/2012 08:00 8,3 C 93 % 1019,5 hPa 0,0 mm 8,6 km/h (2 Bft) SO 225 2 min 0 W/m 7,2 C 6,9 C 9,0 km/h (2 Bft)
17/03/2012 08:10 8,3 C 93 % 1019,4 hPa 0,0 mm 6,1 km/h (2 Bft) S-SO 202 2 min 0 W/m 7,2 C 7,5 C 7,2 km/h (2 Bft)
17/03/2012 08:20 8,4 C 93 % 1019,4 hPa 0,0 mm 9,0 km/h (2 Bft) S 180 2 min 0 W/m 7,3 C 6,9 C 9,7 km/h (2 Bft)
17/03/2012 08:30 8,5 C 93 % 1019,3 hPa 0,0 mm 11,5 km/h (2 Bft) S-SO 202 2 min 0 W/m 7,4 C 6,6 C 17,3 km/h (3 Bft)
17/03/2012 08:40 8,6 C 92 % 1019,4 hPa 0,0 mm 8,6 km/h (2 Bft) S-SO 202 2 min 0 W/m 7,4 C 7,2 C 11,2 km/h (2 Bft)
17/03/2012 08:50 8,6 C 91 % 1019,6 hPa 0,0 mm 8,6 km/h (2 Bft) S-SO 202 2 min 0 W/m 7,2 C 7,2 C 12,2 km/h (2 Bft)
17/03/2012 09:00 8,8 C 91 % 1019,6 hPa 0,0 mm 8,6 km/h (2 Bft) S-SO 202 2 min 0 W/m 7,4 C 7,5 C 13,0 km/h (3 Bft)
17/03/2012 09:10 8,8 C 91 % 1019,6 hPa 0,0 mm 8,6 km/h (2 Bft) S-SO 202 2 min 0 W/m 7,4 C 7,5 C 8,6 km/h (2 Bft)
17/03/2012 09:20 8,9 C 90 % 1019,7 hPa 0,0 mm 5,0 km/h (1 Bft) S-SO 202 2 min 0 W/m 7,4 C 8,5 C 10,4 km/h (2 Bft)
17/03/2012 09:30 9,1 C 90 % 1019,7 hPa 0,0 mm 3,6 km/h (1 Bft) S 180 2 min 0 W/m 7,5 C 9,1 C 4,0 km/h (1 Bft)
17/03/2012 09:40 9,1 C 89 % 1019,6 hPa 0,0 mm 9,7 km/h (2 Bft) S-SO 202 2 min 0 W/m 7,4 C 7,6 C 13,7 km/h (3 Bft)
17/03/2012 09:50 9,2 C 89 % 1019,6 hPa 0,0 mm 6,8 km/h (2 Bft) SO 225 2 min 0 W/m 7,5 C 8,3 C 11,5 km/h (2 Bft)
17/03/2012 10:00 9,3 C 89 % 1019,6 hPa 0,0 mm 12,2 km/h (2 Bft) O-SO 247 2 min 0 W/m 7,6 C 7,4 C 13,3 km/h (3 Bft)
17/03/2012 10:10 9,4 C 88 % 1019,6 hPa 0,0 mm 8,3 km/h (2 Bft) S-SO 202 2 min 0 W/m 7,5 C 8,2 C 12,6 km/h (3 Bft)
17/03/2012 10:20 9,4 C 87 % 1019,6 hPa 0,0 mm 9,0 km/h (2 Bft) SO 225 2 min 0 W/m 7,3 C 8,1 C 14,4 km/h (3 Bft)
17/03/2012 10:30 9,4 C 87 % 1019,8 hPa 0,0 mm 8,3 km/h (2 Bft) SO 225 2 min 0 W/m 7,3 C 8,2 C 13,7 km/h (3 Bft)
17/03/2012 10:40 9,7 C 87 % 1019,8 hPa 0,0 mm 6,1 km/h (2 Bft) SO 225 2 min 0 W/m 7,6 C 9,1 C 10,4 km/h (2 Bft)
17/03/2012 10:50 10,3 C 86 % 1019,7 hPa 0,0 mm 7,2 km/h (2 Bft) S-SO 202 2 min 0 W/m 8,1 C 10,3 C 7,6 km/h (2 Bft)
17/03/2012 11:00 10,6 C 83 % 1019,6 hPa 0,0 mm 7,6 km/h (2 Bft) O-SO 247 2 min 0 W/m 7,8 C 10,6 C 13,0 km/h (3 Bft)
17/03/2012 11:10 10,8 C 82 % 1019,5 hPa 0,0 mm 6,1 km/h (2 Bft) SO 225 2 min 0 W/m 7,9 C 10,8 C 8,3 km/h (2 Bft)
17/03/2012 11:20 10,9 C 80 % 1019,6 hPa 0,0 mm 6,5 km/h (2 Bft) SO 225 2 min 0 W/m 7,6 C 10,9 C 7,9 km/h (2 Bft)
17/03/2012 11:30 10,8 C 80 % 1019,6 hPa 0,0 mm 8,6 km/h (2 Bft) SO 225 2 min 0 W/m 7,5 C 10,8 C 10,8 km/h (2 Bft)
17/03/2012 11:40 10,5 C 82 % 1019,5 hPa 0,0 mm 7,6 km/h (2 Bft) SO 225 2 min 0 W/m 7,6 C 10,5 C 11,9 km/h (2 Bft)
17/03/2012 11:50 10,3 C 83 % 1019,4 hPa 0,0 mm 9,0 km/h (2 Bft) S-SO 202 2 min 0 W/m 7,5 C 10,3 C 14,4 km/h (3 Bft)
17/03/2012 12:00 10,3 C 82 % 1019,3 hPa 0,0 mm 7,9 km/h (2 Bft) S-SO 202 2 min 0 W/m 7,4 C 10,3 C 8,3 km/h (2 Bft)
17/03/2012 12:10 10,4 C 81 % 1019,3 hPa 0,0 mm 7,9 km/h (2 Bft) S-SO 202 2 min 0 W/m 7,3 C 10,4 C 10,1 km/h (2 Bft)
17/03/2012 12:20 10,8 C 79 % 1019,2 hPa 0,0 mm 11,5 km/h (2 Bft) S 180 2 min 0 W/m 7,3 C 10,8 C 25,9 km/h (4 Bft)
17/03/2012 12:30 11,1 C 76 % 1019,2 hPa 0,0 mm 5,4 km/h (2 Bft) SO 225 2 min 0 W/m 7,0 C 11,1 C 11,5 km/h (2 Bft)
17/03/2012 12:40 11,3 C 73 % 1019,0 hPa 0,0 mm 7,9 km/h (2 Bft) O-SO 247 2 min 0 W/m 6,6 C 11,3 C 13,7 km/h (3 Bft)
17/03/2012 12:50 11,5 C 71 % 1019,0 hPa 0,0 mm 10,8 km/h (2 Bft) S-SO 202 2 min 0 W/m 6,4 C 11,5 C 15,8 km/h (3 Bft)
17/03/2012 13:00 12,0 C 72 % 1018,9 hPa 0,0 mm 10,4 km/h (2 Bft) S-SE 157 2 min 0 W/m 7,1 C 12,0 C 12,2 km/h (2 Bft)
17/03/2012 13:10 12,3 C 73 % 1018,7 hPa 0,0 mm 5,8 km/h (2 Bft) SO 225 2 min 0 W/m 7,6 C 12,3 C 5,8 km/h (2 Bft)
17/03/2012 13:20 12,1 C 74 % 1018,5 hPa 0,0 mm 7,2 km/h (2 Bft) S-SE 157 2 min 0 W/m 7,6 C 12,1 C 12,2 km/h (2 Bft)
17/03/2012 13:30 12,0 C 76 % 1018,4 hPa 0,0 mm 13,7 km/h (3 Bft) O-SO 247 2 min 0 W/m 7,9 C 12,0 C 19,8 km/h (3 Bft)
17/03/2012 13:40 12,3 C 76 % 1018,3 hPa 0,0 mm 11,9 km/h (2 Bft) S 180 2 min 0 W/m 8,2 C 12,3 C 15,8 km/h (3 Bft)
17/03/2012 13:50 12,3 C 75 % 1018,1 hPa 0,0 mm 10,4 km/h (2 Bft) S-SO 202 2 min 0 W/m 8,0 C 12,3 C 11,9 km/h (2 Bft)
17/03/2012 14:00 12,1 C 75 % 1018,0 hPa 0,0 mm 9,4 km/h (2 Bft) SO 225 2 min 0 W/m 7,8 C 12,1 C 13,0 km/h (3 Bft)
17/03/2012 14:10 12,1 C 75 % 1017,8 hPa 0,0 mm 5,0 km/h (1 Bft) S 180 2 min 0 W/m 7,8 C 12,1 C 8,6 km/h (2 Bft)
17/03/2012 14:20 12,3 C 75 % 1017,6 hPa 0,0 mm 7,2 km/h (2 Bft) SO 225 2 min 0 W/m 8,0 C 12,3 C 13,3 km/h (3 Bft)
17/03/2012 14:30 12,5 C 74 % 1017,4 hPa 0,0 mm 9,7 km/h (2 Bft) S-SO 202 2 min 0 W/m 8,0 C 12,5 C 16,2 km/h (3 Bft)
17/03/2012 14:40 12,6 C 74 % 1017,2 hPa 0,0 mm 11,9 km/h (2 Bft) S-SO 202 2 min 0 W/m 8,1 C 12,6 C 17,3 km/h (3 Bft)
17/03/2012 14:50 12,8 C 75 % 1017,0 hPa 0,0 mm 5,0 km/h (1 Bft) S-SO 202 2 min 0 W/m 8,5 C 12,8 C 5,0 km/h (1 Bft)
17/03/2012 15:00 13,2 C 75 % 1016,9 hPa 0,0 mm 9,0 km/h (2 Bft) S-SO 202 2 min 0 W/m 8,9 C 13,2 C 13,7 km/h (3 Bft)
17/03/2012 15:10 13,6 C 73 % 1016,8 hPa 0,0 mm 6,5 km/h (2 Bft) S-SO 202 2 min 0 W/m 8,9 C 13,6 C 10,8 km/h (2 Bft)
17/03/2012 15:20 13,9 C 71 % 1016,5 hPa 0,0 mm 9,7 km/h (2 Bft) S-SO 202 2 min 0 W/m 8,7 C 13,9 C 13,0 km/h (3 Bft)
17/03/2012 15:30 13,8 C 69 % 1016,4 hPa 0,0 mm 9,7 km/h (2 Bft) SO 225 2 min 0 W/m 8,2 C 13,8 C 18,7 km/h (3 Bft)
17/03/2012 15:40 13,7 C 69 % 1016,4 hPa 0,0 mm 7,9 km/h (2 Bft) SO 225 2 min 0 W/m 8,1 C 13,7 C 10,1 km/h (2 Bft)
17/03/2012 15:50 13,5 C 70 % 1016,2 hPa 0,0 mm 7,9 km/h (2 Bft) S 180 2 min 0 W/m 8,1 C 13,5 C 11,2 km/h (2 Bft)
17/03/2012 16:00 13,4 C 71 % 1016,2 hPa 0,0 mm 3,6 km/h (1 Bft) SO 225 2 min 0 W/m 8,3 C 13,4 C 10,4 km/h (2 Bft)
17/03/2012 16:10 13,4 C 71 % 1016,0 hPa 0,0 mm 6,1 km/h (2 Bft) SO 225 2 min 0 W/m 8,3 C 13,4 C 9,4 km/h (2 Bft)
17/03/2012 16:20 13,4 C 71 % 1016,0 hPa 0,0 mm 8,3 km/h (2 Bft) S 180 2 min 0 W/m 8,3 C 13,4 C 10,8 km/h (2 Bft)
17/03/2012 16:30 13,4 C 72 % 1015,8 hPa 0,0 mm 6,8 km/h (2 Bft) S-SO 202 2 min 0 W/m 8,5 C 13,4 C 9,7 km/h (2 Bft)
17/03/2012 16:40 13,4 C 71 % 1015,8 hPa 0,0 mm 8,3 km/h (2 Bft) SO 225 2 min 0 W/m 8,3 C 13,4 C 8,3 km/h (2 Bft)
17/03/2012 16:50 13,4 C 71 % 1015,7 hPa 0,0 mm 5,8 km/h (2 Bft) SO 225 2 min 0 W/m 8,3 C 13,4 C 8,3 km/h (2 Bft)
17/03/2012 17:00 13,4 C 72 % 1015,7 hPa 0,0 mm 2,2 km/h (1 Bft) S 180 2 min 0 W/m 8,5 C 13,4 C 4,3 km/h (1 Bft)
17/03/2012 17:10 13,4 C 71 % 1015,6 hPa 0,0 mm 4,3 km/h (1 Bft) S-SO 202 2 min 0 W/m 8,3 C 13,4 C 4,3 km/h (1 Bft)
17/03/2012 17:20 13,3 C 71 % 1015,6 hPa 0,0 mm 6,5 km/h (2 Bft) SO 225 2 min 0 W/m 8,2 C 13,3 C 10,1 km/h (2 Bft)
17/03/2012 17:30 13,3 C 71 % 1015,5 hPa 0,0 mm 4,0 km/h (1 Bft) SO 225 2 min 0 W/m 8,2 C 13,3 C 7,2 km/h (2 Bft)
17/03/2012 17:40 13,2 C 71 % 1015,5 hPa 0,0 mm 4,0 km/h (1 Bft) SO 225 2 min 0 W/m 8,1 C 13,2 C 9,4 km/h (2 Bft)
17/03/2012 17:50 13,1 C 71 % 1015,4 hPa 0,0 mm 2,5 km/h (1 Bft) S-SO 202 2 min 0 W/m 8,0 C 13,1 C 4,3 km/h (1 Bft)
17/03/2012 18:00 12,9 C 72 % 1015,4 hPa 0,0 mm 2,9 km/h (1 Bft) S-SO 202 2 min 0 W/m 8,0 C 12,9 C 2,9 km/h (1 Bft)
17/03/2012 18:10 12,8 C 72 % 1015,4 hPa 0,0 mm 2,9 km/h (1 Bft) SO 225 2 min 0 W/m 7,9 C 12,8 C 4,0 km/h (1 Bft)
17/03/2012 18:20 12,8 C 73 % 1015,2 hPa 0,0 mm 1,1 km/h (1 Bft) SO 225 2 min 0 W/m 8,1 C 12,8 C 4,3 km/h (1 Bft)
17/03/2012 18:30 12,8 C 73 % 1015,3 hPa 0,0 mm 0,0 km/h (0 Bft) O-SO 247 2 min 0 W/m 8,1 C 12,8 C 0,0 km/h (0 Bft)
17/03/2012 18:40 12,6 C 73 % 1015,2 hPa 0,0 mm 0,0 km/h (0 Bft) SO 225 2 min 0 W/m 7,9 C 12,6 C 0,0 km/h (0 Bft)
17/03/2012 18:50 12,5 C 73 % 1015,1 hPa 0,0 mm 2,9 km/h (1 Bft) SO 225 2 min 0 W/m 7,8 C 12,5 C 3,2 km/h (1 Bft)
17/03/2012 19:00 12,4 C 73 % 1015,2 hPa 0,0 mm 0,0 km/h (0 Bft) SO 225 0 min 0 W/m 7,7 C 12,4 C 0,0 km/h (0 Bft)
17/03/2012 19:10 12,2 C 73 % 1015,2 hPa 0,0 mm 0,0 km/h (0 Bft) SO 225 0 min 0 W/m 7,5 C 12,2 C 0,0 km/h (0 Bft)
17/03/2012 19:20 11,9 C 73 % 1015,3 hPa 0,0 mm 0,0 km/h (0 Bft) SO 225 0 min 0 W/m 7,2 C 11,9 C 0,0 km/h (0 Bft)
17/03/2012 19:30 11,5 C 76 % 1015,4 hPa 0,0 mm 1,8 km/h (1 Bft) O-SO 247 0 min 0 W/m 7,4 C 11,5 C 6,5 km/h (2 Bft)
17/03/2012 19:40 11,3 C 78 % 1015,4 hPa 0,0 mm 0,4 km/h (0 Bft) O-SO 247 0 min 0 W/m 7,6 C 11,3 C 4,0 km/h (1 Bft)
17/03/2012 19:50 11,1 C 80 % 1015,3 hPa 0,0 mm 2,9 km/h (1 Bft) SO 225 0 min 0 W/m 7,8 C 11,1 C 8,3 km/h (2 Bft)
17/03/2012 20:00 11,1 C 81 % 1015,5 hPa 0,0 mm 0,4 km/h (0 Bft) SO 225 0 min 0 W/m 8,0 C 11,1 C 3,6 km/h (1 Bft)
17/03/2012 20:10 11,1 C 81 % 1015,5 hPa 0,0 mm 2,2 km/h (1 Bft) S-SO 202 0 min 0 W/m 8,0 C 11,1 C 4,3 km/h (1 Bft)
17/03/2012 20:20 11,1 C 80 % 1015,7 hPa 0,0 mm 5,4 km/h (2 Bft) S-SO 202 0 min 0 W/m 7,8 C 11,1 C 11,2 km/h (2 Bft)
17/03/2012 20:30 11,1 C 80 % 1015,7 hPa 0,0 mm 9,4 km/h (2 Bft) O-NO 292 0 min 0 W/m 7,8 C 11,1 C 15,8 km/h (3 Bft)
17/03/2012 20:40 11,0 C 80 % 1016,0 hPa 0,0 mm 0,4 km/h (0 Bft) O-NO 292 0 min 0 W/m 7,7 C 11,0 C 0,4 km/h (0 Bft)
17/03/2012 20:50 10,9 C 82 % 1016,2 hPa 0,0 mm 3,6 km/h (1 Bft) O-SO 247 0 min 0 W/m 7,9 C 10,9 C 10,4 km/h (2 Bft)
17/03/2012 21:00 10,6 C 81 % 1016,6 hPa 0,1 mm 14,8 km/h (3 Bft) SO 225 0 min 0 W/m 7,5 C 10,6 C 14,8 km/h (3 Bft)
17/03/2012 21:10 9,9 C 76 % 1016,9 hPa 0,0 mm 8,3 km/h (2 Bft) NO 315 0 min 0 W/m 5,9 C 8,8 C 16,2 km/h (3 Bft)
17/03/2012 21:20 9,4 C 76 % 1017,1 hPa 0,0 mm 9,0 km/h (2 Bft) O-SO 247 0 min 0 W/m 5,4 C 8,1 C 9,0 km/h (2 Bft)
17/03/2012 21:30 8,9 C 77 % 1017,2 hPa 0,0 mm 7,2 km/h (2 Bft) S-SO 202 0 min 0 W/m 5,1 C 7,9 C 11,9 km/h (2 Bft)
17/03/2012 21:40 8,7 C 77 % 1017,1 hPa 0,0 mm 2,9 km/h (1 Bft) N-NO 337 0 min 0 W/m 4,9 C 8,7 C 7,9 km/h (2 Bft)
17/03/2012 21:50 8,5 C 77 % 1017,0 hPa 0,0 mm 4,0 km/h (1 Bft) O 270 0 min 0 W/m 4,7 C 8,5 C 11,5 km/h (2 Bft)
17/03/2012 22:00 8,4 C 77 % 1017,2 hPa 0,0 mm 1,1 km/h (1 Bft) O-NO 292 0 min 0 W/m 4,6 C 8,4 C 1,1 km/h (1 Bft)
17/03/2012 22:10 8,3 C 78 % 1017,1 hPa 0,0 mm 1,8 km/h (1 Bft) O-SO 247 0 min 0 W/m 4,7 C 8,3 C 6,8 km/h (2 Bft)
17/03/2012 22:20 8,3 C 79 % 1017,7 hPa 0,0 mm 1,4 km/h (1 Bft) SO 225 0 min 0 W/m 4,9 C 8,3 C 6,1 km/h (2 Bft)
17/03/2012 22:30 8,1 C 80 % 1017,5 hPa 0,0 mm 0,0 km/h (0 Bft) O 270 0 min 0 W/m 4,9 C 8,1 C 0,0 km/h (0 Bft)
17/03/2012 22:40 7,9 C 81 % 1017,7 hPa 0,0 mm 0,0 km/h (0 Bft) O-SO 247 0 min 0 W/m 4,8 C 7,9 C 0,0 km/h (0 Bft)
17/03/2012 22:50 7,6 C 82 % 1018,2 hPa 0,1 mm 1,1 km/h (1 Bft) S-SO 202 0 min 0 W/m 4,7 C 7,6 C 3,6 km/h (1 Bft)
17/03/2012 23:00 7,3 C 83 % 1018,0 hPa 0,1 mm 0,4 km/h (0 Bft) SO 225 0 min 0 W/m 4,6 C 7,3 C 3,6 km/h (1 Bft)
17/03/2012 23:10 7,1 C 85 % 1018,0 hPa 0,0 mm 1,8 km/h (1 Bft) O-SO 247 0 min 0 W/m 4,8 C 7,1 C 7,2 km/h (2 Bft)
17/03/2012 23:20 6,9 C 85 % 1017,7 hPa 0,0 mm 0,7 km/h (0 Bft) O-SO 247 0 min 0 W/m 4,6 C 6,9 C 3,2 km/h (1 Bft)
17/03/2012 23:30 6,7 C 85 % 1017,5 hPa 0,0 mm 1,4 km/h (1 Bft) SO 225 0 min 0 W/m 4,4 C 6,7 C 1,4 km/h (1 Bft)
17/03/2012 23:40 6,6 C 86 % 1017,5 hPa 0,0 mm 1,8 km/h (1 Bft) S-SO 202 0 min 0 W/m 4,4 C 6,6 C 4,3 km/h (1 Bft)
17/03/2012 23:50 6,6 C 86 % 1017,6 hPa 0,0 mm 4,0 km/h (1 Bft) S-SO 202 0 min 0 W/m 4,4 C 6,6 C 4,0 km/h (1 Bft)
_ Min-Heure 23:50 15:40 18:50 - 22:40 - - - - 23:30 08:30 22:40
Minimum _ 6,6 C 69 % 1015,1 hPa - 0,0 km/h (0 Bft) - - - - 4,4 C 6,6 C 0,0 km/h (0 Bft)
_ Max-Heure 15:20 05:20 02:50 22:50 21:00 - - 18:50 23:50 15:00 15:20 12:20
Maximum _ 13,9 C 94 % 1020,5 hPa 0,1 mm 14,8 km/h
SO (3 Bft)
- - 2 min 0 W/m 8,9 C 13,9 C 25,9 km/h
S (4 Bft)
Moyenne _ 9,8 C 83 % 1018,3 hPa #0,3 mm 4,8 km/h (1 Bft) SO - #2:20 h 0 W/m 7,0 C 9,6 C 7,7 km/h (2 Bft)
Saint Bonnet de Bellac- Haute Vienne - France